This is the latest recevied weather packets stored in our database for station/object VK2BLR. If no packets are shown the sender has not sent any weather packets the latest 10 day(s).
| Time | Temp. | Humidity | Pressure | Rain* | Wind** | Luminosity | Snow |
|---|---|---|---|---|---|---|---|
| 1777878513 | 15° C | 84% | 1014.4 hPa | 0.51 mm | - | - | - |
| 1777877612 | 15° C | 85% | 1014.5 hPa | 0.51 mm | - | - | - |
| 1777876713 | 15° C | 85% | 1014.4 hPa | 0.51 mm | - | - | - |
| 1777875813 | 14.44° C | 85% | 1014.4 hPa | 0.25 mm | - | - | - |
| 1777874914 | 14.44° C | 86% | 1014.1 hPa | 0 mm | - | - | - |
| 1777874013 | 15° C | 88% | 1014.4 hPa | 0 mm | - | - | - |
| 1777873113 | 15° C | 88% | 1014.1 hPa | 0.25 mm | - | - | - |
| 1777872213 | 15° C | 88% | 1013.9 hPa | 0.25 mm | - | - | - |
| 1777871314 | 15° C | 87% | 1014 hPa | 0.25 mm | - | - | - |
| 1777870413 | 15° C | 88% | 1013.7 hPa | 1.02 mm | - | - | - |
| 1777869513 | 15° C | 88% | 1013.7 hPa | 1.02 mm | - | - | - |
| 1777868613 | 15° C | 88% | 1013.8 hPa | 1.02 mm | - | - | - |
| 1777867714 | 15.56° C | 88% | 1013.9 hPa | 1.02 mm | - | - | - |
| 1777866813 | 15.56° C | 87% | 1013.9 hPa | 0.51 mm | - | - | - |
| 1777865912 | 15.56° C | 86% | 1013.9 hPa | 0.25 mm | - | - | - |
| 1777865014 | 15.56° C | 85% | 1014.2 hPa | 0.51 mm | - | - | - |
| 1777864113 | 16.11° C | 85% | 1014 hPa | 1.02 mm | - | - | - |
| 1777863212 | 16.11° C | 85% | 1014.2 hPa | 0.51 mm | - | - | - |
| 1777862312 | 16.11° C | 83% | 1014.6 hPa | 0.51 mm | - | - | - |
| 1777861413 | 16.67° C | 82% | 1014.7 hPa | 0.25 mm | - | - | - |
| 1777860513 | 17.78° C | 76% | 1014.8 hPa | 0 mm | - | - | - |
| 1777859612 | 18.33° C | 75% | 1015 hPa | 0 mm | - | - | - |
| 1777858712 | 18.33° C | 73% | 1015.1 hPa | 0 mm | - | - | - |
| 1777857813 | 18.89° C | 73% | 1015.1 hPa | 0 mm | - | - | - |
| 1777856913 | 18.89° C | 72% | 1015.3 hPa | 0 mm | - | - | - |
* Rain latest hour (hover to see other rain measurements)
** Current wind speed in m/s (hover to see current wind gust speed)